This is the latest recevied weather packets stored in our database for station/object WK7G. If no packets are shown the sender has not sent any weather packets the latest 10 day(s).
| Time | Temp. | Humidity | Pressure | Rain* | Wind** | Luminosity | Snow |
|---|---|---|---|---|---|---|---|
| 1777170348 | 1.67° C | 82% | 1001 hPa | 0 mm | - | 0 W/m² | - |
| 1777170046 | 1.67° C | 82% | 1001 hPa | 0 mm | - | 1 W/m² | - |
| 1777169743 | 1.67° C | 81% | 1001.3 hPa | 0 mm | - | 3 W/m² | - |
| 1777169439 | 1.67° C | 80% | 1001.2 hPa | 0 mm | - | 6 W/m² | - |
| 1777169139 | 1.67° C | 78% | 1000.9 hPa | 0 mm | - | 8 W/m² | - |
| 1777168834 | 2.22° C | 78% | 1000.9 hPa | 0 mm | - | 12 W/m² | - |
| 1777168531 | 2.78° C | 78% | 1001.2 hPa | 0 mm | - | 15 W/m² | - |
| 1777168228 | 2.78° C | 77% | 1001.2 hPa | 0 mm | - | 19 W/m² | - |
| 1777167927 | 2.78° C | 78% | 1000.8 hPa | 0 mm | - | 23 W/m² | - |
| 1777167626 | 3.33° C | 77% | 1001.2 hPa | 0 mm | - | 26 W/m² | - |
| 1777167322 | 3.33° C | 74% | 1001.2 hPa | 0 mm | - | 28 W/m² | - |
| 1777167018 | 3.89° C | 74% | 1001.3 hPa | 0 mm | - | 35 W/m² | - |
| 1777166714 | 4.44° C | 72% | 1001.2 hPa | 0 mm | - | 44 W/m² | - |
| 1777166410 | 4.44° C | 69% | 1001 hPa | 0 mm | - | 44 W/m² | - |
| 1777166106 | 5° C | 66% | 1001.2 hPa | 0 mm | - | 50 W/m² | - |
| 1777165803 | 5° C | 49% | 1001.3 hPa | 0 mm | - | 55 W/m² | - |
| 1777165500 | 5° C | 49% | 1001.2 hPa | 0 mm | - | 58 W/m² | - |
| 1777165196 | 5° C | 49% | 1001 hPa | 0 mm | - | 64 W/m² | - |
| 1777164891 | 5.56° C | 52% | 1001.4 hPa | 0 mm | - | 74 W/m² | - |
| 1777164284 | 5.56° C | 51% | 1001.2 hPa | 0 mm | - | 92 W/m² | - |
| 1777163980 | 5.56° C | 51% | 1001 hPa | 0 mm | - | 113 W/m² | - |
| 1777163679 | 5.56° C | 50% | 1001.4 hPa | 0 mm | - | 106 W/m² | - |
| 1777163374 | 5.56° C | 49% | 1001.5 hPa | 0 mm | - | 104 W/m² | - |
| 1777163071 | 5.56° C | 48% | 1001.6 hPa | 0 mm | - | 106 W/m² | - |
| 1777162771 | 5.56° C | 48% | 1001.2 hPa | 0 mm | - | 93 W/m² | - |
* Rain latest hour (hover to see other rain measurements)
** Current wind speed in m/s (hover to see current wind gust speed)